Location: Sungai Liu
(2.3667°N, 113.8667°E)
Time: 13:27:24
(UTC+00:00)

Cosmos 2058 Rocket - Pass Details

Date: 20 May 2022
Orbit: 609 x 639 km, 82.5° (Epoch: 06 July)

Event Time Altitude Azimuth Distance (km) Brightness Sun altitude
Rises 21:28:07 0° 341° (NNW) 2,862 6.5 -11.6°
Reaches altitude 10° 21:30:29 10° 332° (NNW) 1,957 5.6 -11.0°
Maximum altitude 21:34:24 34° 267° (W) 1,011 3.7 -10.1°
Drops below altitude 10° 21:38:19 10° 202° (SSW) 1,959 5.2 -9.2°
Sets 21:40:42 0° 192° (SSW) 2,866 6.2 -8.7°
